www.pogodaiklimat.ru

Погода и климат >> Архив погоды >> Антарктида >> King Sejong


ПОГОДА на King Sejong

  • Прогноз погоды на King Sejong
  • Монитор погоды на King Sejong

АРХИВ ПОГОДЫ на King Sejong

Время (UTC), дата Ветер
(напр.,м/с)
 
Видим.   Явления Облачность Т
(С)
Тd
(С)
f
(%)
Тe
(С)
Тes
(С)
Комфортность P
(гПа)
Po
(гПа)
Тmin
(С)
Tmax
(С)
R
(мм)
R24
(мм)
S
(см)
06 13.08 штиль 0 20 км 10/10 600 м
[Sc]
-6.2 -8.6 83 -7 -7 1008.3 1007.4
12 13.08 С 4 15 км 10/10 300 м
[Sc]
-3.5 -4.8 91 -9 -9 1006.2 1005.3 -6.9
18 13.08 С 3 800 м туман ?/? -1.6 -2.3 95 -7 -7 1003.2 1002.3
00 14.08 СЗ 5 10 км в посл. час снег {туман} 10/10 300 м
[Sc]
-2.4 -3.2 94 -9 -9 1001.2 1000.3 -0.8 0.0
06 14.08 З 5 12 км 10/10 300 м
[Sc]
-2.4 -4.1 88 -9 -9 998.4 997.5
12 14.08 З 6 20 км 8/8 600 м
[Sc]
-2.4 -6.6 73 -9 -9 996.6 995.7 -3.3
18 14.08 З 6 15 км 10/10 300 м
[Sc]
-1.8 -3.2 90 -9 -9 996.4 995.5
00 15.08 З 9 12 км 10/10 300 м
[Sc]
-0.6 -2.3 88 -9 -9 993.2 992.3 -0.1
06 15.08 З 5 12 км 10/10 300 м
[Sc]
-0.8 -1.8 93 -7 -7 988.9 988.0
12 15.08 В 8 3000 м слаб. снег 10/10 300 м
[Sc]
-3.7 -5.1 90 -12 -12 990.8 989.9 -4.4 1
18 15.08 В 10 15 км в посл. час снег 8/8 300 м
[Sc]
-6.1 -7.9 87 -16 -16 992.6 991.7
00 16.08 С 1 20 км ясно -8.3 -9.9 88 -9 -9 994.4 993.5 -1.3
06 16.08 З 2 15 км 10/10 300 м
[Sc]
-5.3 -6.4 92 -10 -10 994.4 993.5
12 16.08 Ю 3 20 км 8/8 300 м
[Sc]
-5.9 -8.5 82 -11 -11 995.1 994.2 -7.6
18 16.08 В 17 3000 м сильная метель 8/8 300 м
[Sc]
-15.7 -19.1 75 -31 -31 опасность
обморожения
1003.8 1002.9
00 17.08 В 10 10 км {метель} 10/10 300 м
[Sc]
-15.8 -19.7 72 -28 -28 1011.9 1011.0 -17.1 0.0
06 17.08 С 5 3000 м дымка 10/10 300 м
[Sc]
-11.1 -13.4 83 -19 -19 1015.4 1014.5
12 17.08 З 7 15 км 10/10 300 м
[Sc]
-5.1 -9.4 72 -13 -13 1012.3 1011.4 -14.7
18 17.08 З 4 20 км 9/9 300 м
[Sc]
-6.2 -9.3 79 -12 -12 1009.3 1008.4
00 18.08 С 5 20 км 3/3 300 м
[Sc]
-5.5 -8.2 81 -12 -12 1006.0 1005.1 -4.3
06 18.08 ЮВ 6 20 км 3/3 300 м
[Sc]
-2.3 -5.1 81 -9 -9 1004.0 1003.1
12 18.08 Ю 14 20 км 8/8 300 м
[Sc]
-0.7 -4.4 76 -10 -10 1001.9 1001.0 -7.5
18 18.08 С 2 15 км 4/4 600 м
[Sc]
-1.6 -4.8 79 -5 -5 1000.2 999.3
00 19.08 С 4 15 км 10/10 600 м
[Sc]
0.0 -3.0 80 -5 -5 999.9 999.0 +1.4
06 19.08 ЮВ 4 20 км ясно -1.9 -5.4 77 -7 -7 1008.7 1007.8
12 19.08 СЗ 7 900 м туман ?/? -3.3 -4.1 94 -11 -11 1012.0 1011.1 -5.2
18 19.08 Ю 2 12 км {туман} 8/8 300 м
[Sc]
-2.6 -4.8 85 -7 -6 1011.0 1010.1
00 20.08 штиль 0 15 км ясно -5.2 -6.6 90 -6 -6 1011.5 1010.6

 

Местоположение метеостанции King Sejong (Антарктида): широта -62.21 долгота -58.75 высота над уровнем моря 11 м.

В архиве по умолчанию представлена погода на King Sejong за последнюю неделю. Архивные данные за месяц целиком и за предыдущие месяцы, начиная с января 2011 года, Вы можете получить, выбрав интересующий диапазон дат из раскрывающегося списка и нажав кнопку "Ввод!".


*Определитесь, кто Вы:
робот инопланетянин человек

Внимание! Время в таблицах - всемирное. Для получения местного времени необходимо прибавить поправку, которая равна 0 ч.

Смотрите также архив погоды в соседних городах и на ближайших метеорологических станциях:

Погода на Dinamet-Уругвай (Антарктида) (5 км)
Погода на Carlini Base (Антарктида) (7 км)
Погода на Беллинсгаузене (Антарктида) (9 км)
Погода на Чанчэн (Антарктида) (11 км)
Погода на Frei Chi-Base (Антарктида) (12 км)
Погода на Captain Arturo Prat Base (Антарктида) (58 км)
Погода на Острове Хуана Карлоса (Антарктида) (98 км)
Погода на Бернардо О`Хиггинс (Антарктида) (130 км)
Погода на Габриэль де Кастилья (Антарктида) (131 км)
Погода на Эсперансе (Антарктида) (160 км)

Пояснения к столбцам:

Ветер - указаны скорость ветра в м/с - средняя за 10 мин, порывы в срок и между сроками (в фигурных скобках) и направление, откуда дует ветер: С - северный, СВ - северо-восточный, В - восточный, ЮВ - юго-восточный, Ю - южный, ЮЗ - юго-западный, З - западный, СЗ - северо-западный.
Видимость - горизонтальная дальность видимости в метрах или километрах. При видимости от 1 до 10 км при отсутствии осадков обычно наблюдается дымка, при ухудшении видимости до 1 км и менее - туман. В сухую погоду видимость может ухудшаться дымом, пылью или мглою.
Явления - указаны атмосферные явления, наблюдавшиеся в срок или в последний час перед сроком; фигурными скобками обозначены явления, наблюдавшиеся между сроками (за 1-3 часа до срока); квадратными скобками обозначены град или гололедные отложения с указанием их диаметра в мм.
Облачность - указаны через наклонную черту общая и нижняя облачность в баллах и высота нижней границы облаков в метрах; квадратными скобками обозначены формы облаков: Ci - перистые, Cs - перисто-слоистые, Cc - перисто-кучевые, Ac - высококучевые, As - высокослоистые, Sc - слоисто-кучевые, Ns - слоисто-дождевые, Cu - кучевые, Cb - кучево-дождевые. Подробнее классификацию облаков см. в Атласе облаков (PDF).
T - Температура воздуха - температура, измеренная на высоте 2 м над землей.
Td - Температура точки росы - температура, при понижении до которой содержащийся в воздухе водяной пар достигнет насыщения.
f - Относительная влажность воздуха - влажноcть воздуха, измеренная на высоте 2 м над землей.
Te - Эффективная температура - температура, которую ощущает одетый по сезону человек в тени. Характеристика душности погоды. При расчете учитывается влияние влажности воздуха и скорости ветра на теплоощущения человека.
Tes - Эффективная температура на солнце - температура, которую ощущает человек, с поправкой на солнечный нагрев. Характеристика знойности погоды. Зависит от высоты солнца над горизонтом, облачности и скорости ветра. Ночью, в пасмурную погоду, а также при ветре 12 м/с и более поправка равна нулю.
P - Атмосферное давление - приведенное к уровню моря атмосферное давление.
Po - Атмосферное давление - измеренное на уровне метеостанции атмосферное давление.
Tmin - Минимальная температура - минимум температуры воздуха на высоте 2 м над землей.
Tmax - Максимальная температура - максимум температуры воздуха на высоте 2 м над землей.
R - Количество осадков - Количество выпавших осадков за период времени, мм. При наведении курсора мыши на число - период времени, за который выпало указанное количество осадков.
R24 - Количество осадков - Количество выпавших осадков за 24 часа, мм.
S - Снежный покров - Высота снежного покрова, см. При наведении курсора мыши на число - состояние снежного покрова и степень покрытия местности в баллах.